When you browse on this site, cookies collect data to enhance your experience and personalize the content and advertising you see.
Visit our Privacy Policy to learn more. By continuing to use the site, you agree to this use of cookies and data.
  • In Österreich
  • Länderverzeichnis
  • Für 7 Tage
  • Wassertemperatur
  • Wetterkarte
  • News
  • Widgets
  • user-avatar
    Anmelden

    Stündliche Wetter Megri

    Heute, 20 Januar, Montag

    Zeit Temperatur Niederschläge Wind Luftdruck Luftfeuchtigkeit
    00:00 -7°C° 0 mm 0 m/S 621 mmHg 94%
    01:00 -8°C° 0 mm 0 m/S 621 mmHg 94%
    02:00 -8°C° 0 mm 0 m/S 621 mmHg 94%
    03:00 -8°C° 0 mm 0 m/S 621 mmHg 94%
    04:00 -8°C° 0 mm 0 m/S 621 mmHg 94%
    05:00 -8°C° 0 mm 0 m/S 621 mmHg 94%
    06:00 -9°C° 0 mm 0 m/S 621 mmHg 93%
    07:00 -8°C° 0 mm 0 m/S 622 mmHg 92%
    08:00 -7°C° 0 mm 0 m/S 622 mmHg 92%
    09:00 -6°C° 0 mm 0 m/S 623 mmHg 91%
    10:00 -5°C° 0 mm 0 m/S 623 mmHg 90%
    11:00 -4°C° 0 mm 1 m/S 623 mmHg 89%
    12:00 -3°C° 0 mm 1 m/S 623 mmHg 88%
    13:00 -3°C° 0 mm 1 m/S 622 mmHg 88%
    14:00 -3°C° 0 mm 0 m/S 622 mmHg 88%
    15:00 -3°C° 0 mm 0 m/S 622 mmHg 89%
    16:00 -4°C° 0 mm 0 m/S 622 mmHg 91%
    17:00 -5°C° 0 mm 0 m/S 622 mmHg 93%
    18:00 -6°C° 0 mm 0 m/S 622 mmHg 95%
    19:00 -6°C° 0 mm 0 m/S 621 mmHg 94%
    20:00 -7°C° 0 mm 0 m/S 621 mmHg 94%
    21:00 -7°C° 0 mm 0 m/S 621 mmHg 94%
    22:00 -8°C° 0 mm 0 m/S 621 mmHg 93%
    23:00 -8°C° 0 mm 0 m/S 621 mmHg 93%

    Morgen, 21 Januar, Dienstag

    Zeit Temperatur Niederschläge Wind Luftdruck Luftfeuchtigkeit
    00:00 -8°C° 0 mm 0 m/S 621 mmHg 93%
    01:00 -9°C° 0 mm 0 m/S 620 mmHg 92%
    02:00 -9°C° 0 mm 0 m/S 620 mmHg 92%
    03:00 -9°C° 0 mm 1 m/S 620 mmHg 91%
    04:00 -10°C° 0 mm 1 m/S 620 mmHg 91%
    05:00 -10°C° 0 mm 1 m/S 620 mmHg 91%
    06:00 -10°C° 0 mm 1 m/S 620 mmHg 91%
    07:00 -9°C° 0 mm 1 m/S 620 mmHg 90%
    08:00 -8°C° 0 mm 1 m/S 621 mmHg 89%
    09:00 -7°C° 0 mm 1 m/S 621 mmHg 88%
    10:00 -6°C° 0 mm 1 m/S 621 mmHg 87%
    11:00 -6°C° 0 mm 1 m/S 621 mmHg 86%
    12:00 -4°C° 0 mm 1 m/S 621 mmHg 85%
    13:00 -4°C° 0 mm 1 m/S 621 mmHg 87%
    14:00 -3°C° 0 mm 1 m/S 621 mmHg 88%
    15:00 -3°C° 0 mm 1 m/S 621 mmHg 89%
    16:00 -6°C° 0 mm 1 m/S 621 mmHg 90%
    17:00 -7°C° 0 mm 1 m/S 621 mmHg 91%
    18:00 -8°C° 0 mm 1 m/S 620 mmHg 93%
    19:00 -8°C° 0 mm 1 m/S 621 mmHg 92%
    20:00 -9°C° 0 mm 1 m/S 621 mmHg 91%
    21:00 -9°C° 0 mm 1 m/S 621 mmHg 89%
    22:00 -10°C° 0 mm 1 m/S 621 mmHg 87%
    23:00 -10°C° 0 mm 1 m/S 621 mmHg 85%

    übermorgen, 22 Januar, Mittwoch

    Zeit Temperatur Niederschläge Wind Luftdruck Luftfeuchtigkeit
    00:00 -10°C° 0 mm 1 m/S 621 mmHg 83%
    01:00 -10°C° 0 mm 1 m/S 621 mmHg 81%
    02:00 -10°C° 0 mm 1 m/S 621 mmHg 80%
    03:00 -10°C° 0 mm 1 m/S 621 mmHg 78%
    04:00 -11°C° 0 mm 1 m/S 620 mmHg 77%
    05:00 -11°C° 0 mm 1 m/S 620 mmHg 76%
    06:00 -11°C° 0 mm 1 m/S 620 mmHg 75%
    07:00 -10°C° 0 mm 1 m/S 621 mmHg 75%
    08:00 -8°C° 0 mm 1 m/S 621 mmHg 76%
    09:00 -7°C° 0 mm 1 m/S 622 mmHg 76%
    10:00 -6°C° 0 mm 1 m/S 622 mmHg 76%
    11:00 -4°C° 0 mm 1 m/S 621 mmHg 76%
    12:00 -4°C° 0 mm 1 m/S 621 mmHg 76%
    13:00 -4°C° 0 mm 1 m/S 621 mmHg 79%
    14:00 -4°C° 0 mm 1 m/S 620 mmHg 82%
    15:00 -4°C° 0 mm 1 m/S 620 mmHg 86%
    16:00 -6°C° 0 mm 1 m/S 620 mmHg 86%
    17:00 -8°C° 0 mm 1 m/S 619 mmHg 87%
    18:00 -9°C° 0 mm 1 m/S 619 mmHg 88%
    19:00 -9°C° 0 mm 1 m/S 619 mmHg 83%
    20:00 -10°C° 0 mm 1 m/S 618 mmHg 79%
    21:00 -10°C° 0 mm 1 m/S 618 mmHg 74%
    22:00 -10°C° 0 mm 1 m/S 618 mmHg 73%
    23:00 -10°C° 0 mm 1 m/S 618 mmHg 72%

    23 Januar, Donnerstag

    Zeit Temperatur Niederschläge Wind Luftdruck Luftfeuchtigkeit
    00:00 -10°C° 0 mm 1 m/S 617 mmHg 71%
    01:00 -10°C° 0 mm 1 m/S 617 mmHg 70%
    02:00 -10°C° 0 mm 1 m/S 617 mmHg 69%
    03:00 -10°C° 0 mm 1 m/S 616 mmHg 69%
    04:00 -12°C° 0 mm 2 m/S 616 mmHg 71%
    05:00 -12°C° 0 mm 2 m/S 615 mmHg 74%
    06:00 -13°C° 0 mm 2 m/S 615 mmHg 77%
    07:00 -12°C° 0 mm 2 m/S 615 mmHg 79%
    08:00 -10°C° 0 mm 2 m/S 616 mmHg 80%
    09:00 -9°C° 0 mm 2 m/S 616 mmHg 81%
    10:00 -8°C° 0 mm 2 m/S 616 mmHg 82%
    11:00 -8°C° 0 mm 3 m/S 615 mmHg 83%
    12:00 -7°C° 0 mm 3 m/S 615 mmHg 84%
    13:00 -7°C° 0 mm 3 m/S 615 mmHg 85%
    14:00 -7°C° 0 mm 3 m/S 614 mmHg 86%
    15:00 -7°C° 0 mm 3 m/S 613 mmHg 86%
    16:00 -7°C° 0 mm 3 m/S 613 mmHg 87%
    17:00 -8°C° 0 mm 3 m/S 613 mmHg 87%
    18:00 -9°C° 0 mm 3 m/S 613 mmHg 87%
    19:00 -8°C° 0 mm 2 m/S 614 mmHg 87%
    20:00 -7°C° 0 mm 2 m/S 614 mmHg 87%
    21:00 -7°C° 0 mm 2 m/S 614 mmHg 87%
    22:00 -7°C° 0.1 mm 2 m/S 615 mmHg 88%
    23:00 -7°C° 0.1 mm 2 m/S 615 mmHg 89%

    24 Januar, Freitag

    Zeit Temperatur Niederschläge Wind Luftdruck Luftfeuchtigkeit
    00:00 -6°C° 0.1 mm 2 m/S 615 mmHg 89%
    01:00 -7°C° 0.3 mm 2 m/S 615 mmHg 91%
    02:00 -7°C° 0.3 mm 2 m/S 615 mmHg 93%
    03:00 -7°C° 0.3 mm 2 m/S 615 mmHg 95%
    04:00 -6°C° 0.5 mm 1 m/S 615 mmHg 95%
    05:00 -6°C° 0.5 mm 1 m/S 616 mmHg 95%
    06:00 -6°C° 0.5 mm 1 m/S 616 mmHg 95%
    07:00 -6°C° 0.4 mm 1 m/S 616 mmHg 95%
    08:00 -6°C° 0.4 mm 1 m/S 616 mmHg 94%
    09:00 -6°C° 0.4 mm 1 m/S 617 mmHg 94%
    10:00 -6°C° 0.3 mm 1 m/S 617 mmHg 93%
    11:00 -4°C° 0.3 mm 1 m/S 617 mmHg 92%
    12:00 -4°C° 0.3 mm 1 m/S 617 mmHg 92%
    13:00 -6°C° 0.3 mm 2 m/S 617 mmHg 92%
    14:00 -6°C° 0.3 mm 2 m/S 617 mmHg 92%
    15:00 -6°C° 0.3 mm 2 m/S 617 mmHg 93%
    16:00 -7°C° 0.6 mm 2 m/S 618 mmHg 93%
    17:00 -7°C° 0.6 mm 2 m/S 618 mmHg 93%
    18:00 -9°C° 0.6 mm 3 m/S 619 mmHg 94%
    19:00 -9°C° 0.2 mm 3 m/S 619 mmHg 93%
    20:00 -10°C° 0.2 mm 3 m/S 619 mmHg 93%
    21:00 -10°C° 0.2 mm 3 m/S 620 mmHg 92%
    22:00 -10°C° 0.1 mm 2 m/S 620 mmHg 91%
    23:00 -10°C° 0.1 mm 2 m/S 620 mmHg 91%

    25 Januar, Samstag

    Zeit Temperatur Niederschläge Wind Luftdruck Luftfeuchtigkeit
    00:00 -12°C° 0.1 mm 2 m/S 620 mmHg 90%
    01:00 -12°C° 0 mm 2 m/S 620 mmHg 90%
    02:00 -13°C° 0 mm 2 m/S 620 mmHg 90%
    03:00 -11°C° 0 mm 1 m/S 620 mmHg 89%
    04:00 -12°C° 0 mm 1 m/S 620 mmHg 89%
    05:00 -12°C° 0 mm 1 m/S 621 mmHg 89%
    06:00 -12°C° 0 mm 1 m/S 621 mmHg 89%
    07:00 -11°C° 0 mm 1 m/S 621 mmHg 88%
    08:00 -11°C° 0 mm 1 m/S 622 mmHg 87%
    09:00 -10°C° 0 mm 1 m/S 623 mmHg 86%
    10:00 -9°C° 0 mm 1 m/S 623 mmHg 84%
    11:00 -8°C° 0 mm 1 m/S 623 mmHg 83%
    12:00 -7°C° 0 mm 1 m/S 623 mmHg 81%
    13:00 -7°C° 0 mm 1 m/S 623 mmHg 83%
    14:00 -7°C° 0 mm 1 m/S 623 mmHg 84%
    15:00 -7°C° 0 mm 1 m/S 622 mmHg 86%
    16:00 -9°C° 0 mm 1 m/S 622 mmHg 85%
    17:00 -10°C° 0 mm 1 m/S 622 mmHg 85%
    18:00 -12°C° 0 mm 1 m/S 621 mmHg 84%
    19:00 -12°C° 0 mm 1 m/S 621 mmHg 79%
    20:00 -12°C° 0 mm 1 m/S 622 mmHg 74%
    21:00 -12°C° 0 mm 1 m/S 622 mmHg 69%
    22:00 -12°C° 0 mm 1 m/S 622 mmHg 66%
    23:00 -12°C° 0 mm 1 m/S 622 mmHg 62%
    Mehr zeigen